When you browse on this site, cookies collect data to enhance your experience and personalize the content and advertising you see.
Visit our Privacy Policy to learn more. By continuing to use the site, you agree to this use of cookies and data.
  • In Portugal
  • List of Countries
  • For 7 days
  • Water Temperature
  • Satellite Maps
  • Weather Map
  • Weather Widgets
  • user-avatar
    Login

    Hourly Weather Nivki

    Today, 26 April, Friday

    Time Temperature Precipitation Wind Pressure Humidity
    00:00 +13°C° 0 mm 0 mps 749 mmHg 49%
    01:00 +12°C° 0 mm 0 mps 749 mmHg 50%
    02:00 +12°C° 0 mm 0 mps 749 mmHg 51%
    03:00 +12°C° 0 mm 0 mps 749 mmHg 52%
    04:00 +13°C° 0 mm 1 mps 749 mmHg 53%
    05:00 +13°C° 0 mm 1 mps 749 mmHg 53%
    06:00 +15°C° 0 mm 1 mps 749 mmHg 50%
    07:00 +18°C° 0 mm 1 mps 749 mmHg 46%
    08:00 +19°C° 0 mm 1 mps 749 mmHg 42%
    09:00 +21°C° 0 mm 1 mps 748 mmHg 38%
    10:00 +23°C° 0 mm 1 mps 748 mmHg 33%
    11:00 +24°C° 0 mm 2 mps 748 mmHg 28%
    12:00 +24°C° 0 mm 2 mps 748 mmHg 28%
    13:00 +25°C° 0 mm 2 mps 748 mmHg 27%
    14:00 +25°C° 0 mm 2 mps 747 mmHg 27%
    15:00 +24°C° 0 mm 1 mps 747 mmHg 32%
    16:00 +23°C° 0 mm 1 mps 746 mmHg 36%
    17:00 +22°C° 0 mm 1 mps 746 mmHg 41%
    18:00 +21°C° 0 mm 1 mps 746 mmHg 44%
    19:00 +19°C° 0 mm 1 mps 746 mmHg 48%
    20:00 +18°C° 0 mm 1 mps 746 mmHg 52%
    21:00 +16°C° 0 mm 1 mps 745 mmHg 54%
    22:00 +15°C° 0 mm 1 mps 745 mmHg 57%
    23:00 +13°C° 0 mm 2 mps 745 mmHg 59%

    Tomorrow, 27 April, Saturday

    Time Temperature Precipitation Wind Pressure Humidity
    00:00 +13°C° 0 mm 2 mps 745 mmHg 62%
    01:00 +13°C° 0 mm 2 mps 744 mmHg 64%
    02:00 +12°C° 0 mm 2 mps 744 mmHg 66%
    03:00 +12°C° 0 mm 2 mps 744 mmHg 68%
    04:00 +12°C° 0 mm 2 mps 744 mmHg 70%
    05:00 +10°C° 0 mm 2 mps 743 mmHg 72%
    06:00 +13°C° 0 mm 2 mps 743 mmHg 67%
    07:00 +15°C° 0 mm 2 mps 743 mmHg 61%
    08:00 +17°C° 0 mm 2 mps 743 mmHg 55%
    09:00 +19°C° 0 mm 2 mps 742 mmHg 50%
    10:00 +20°C° 0 mm 2 mps 742 mmHg 44%
    11:00 +23°C° 0 mm 2 mps 742 mmHg 39%
    12:00 +23°C° 0 mm 2 mps 741 mmHg 39%
    13:00 +23°C° 0 mm 2 mps 741 mmHg 38%
    14:00 +24°C° 0 mm 2 mps 741 mmHg 38%
    15:00 +23°C° 0 mm 2 mps 740 mmHg 42%
    16:00 +21°C° 0 mm 2 mps 740 mmHg 45%
    17:00 +21°C° 0 mm 2 mps 740 mmHg 49%
    18:00 +19°C° 0.3 mm 2 mps 740 mmHg 58%
    19:00 +17°C° 0.3 mm 2 mps 740 mmHg 67%
    20:00 +15°C° 0.3 mm 2 mps 740 mmHg 76%
    21:00 +14°C° 0.2 mm 2 mps 740 mmHg 78%
    22:00 +13°C° 0.2 mm 2 mps 741 mmHg 80%
    23:00 +12°C° 0.2 mm 3 mps 741 mmHg 81%

    Day after tomorrow, 28 April, Sunday

    Time Temperature Precipitation Wind Pressure Humidity
    00:00 +11°C° 0 mm 3 mps 741 mmHg 83%
    01:00 +11°C° 0 mm 3 mps 742 mmHg 84%
    02:00 +10°C° 0 mm 3 mps 742 mmHg 85%
    03:00 +10°C° 0 mm 4 mps 743 mmHg 84%
    04:00 +8°C° 0 mm 4 mps 744 mmHg 83%
    05:00 +7°C° 0 mm 4 mps 744 mmHg 82%
    06:00 +7°C° 0 mm 4 mps 745 mmHg 77%
    07:00 +7°C° 0 mm 4 mps 746 mmHg 72%
    08:00 +7°C° 0 mm 4 mps 746 mmHg 67%
    09:00 +8°C° 0 mm 4 mps 747 mmHg 60%
    10:00 +8°C° 0 mm 4 mps 747 mmHg 52%
    11:00 +10°C° 0 mm 4 mps 748 mmHg 45%
    12:00 +10°C° 0 mm 4 mps 748 mmHg 41%
    13:00 +11°C° 0 mm 4 mps 748 mmHg 36%
    14:00 +12°C° 0 mm 4 mps 748 mmHg 32%
    15:00 +11°C° 0 mm 4 mps 748 mmHg 32%
    16:00 +11°C° 0 mm 4 mps 748 mmHg 32%
    17:00 +10°C° 0 mm 4 mps 749 mmHg 32%
    18:00 +9°C° 0 mm 3 mps 749 mmHg 37%
    19:00 +7°C° 0 mm 3 mps 750 mmHg 42%
    20:00 +5°C° 0 mm 2 mps 750 mmHg 46%
    21:00 +5°C° 0 mm 2 mps 751 mmHg 50%
    22:00 +4°C° 0 mm 2 mps 751 mmHg 54%
    23:00 +3°C° 0 mm 2 mps 752 mmHg 58%

    29 April, Monday

    Time Temperature Precipitation Wind Pressure Humidity
    00:00 +2°C° 0 mm 2 mps 752 mmHg 61%
    01:00 +2°C° 0 mm 2 mps 752 mmHg 65%
    02:00 +1°C° 0 mm 2 mps 752 mmHg 68%
    03:00 +1°C° 0 mm 2 mps 752 mmHg 68%
    04:00 -1°C° 0 mm 2 mps 753 mmHg 68%
    05:00 -1°C° 0 mm 2 mps 753 mmHg 67%
    06:00 +2°C° 0 mm 2 mps 753 mmHg 58%
    07:00 +4°C° 0 mm 2 mps 753 mmHg 49%
    08:00 +6°C° 0 mm 2 mps 753 mmHg 39%
    09:00 +7°C° 0 mm 2 mps 753 mmHg 36%
    10:00 +8°C° 0 mm 2 mps 753 mmHg 32%
    11:00 +9°C° 0 mm 2 mps 753 mmHg 28%
    12:00 +10°C° 0 mm 2 mps 752 mmHg 27%
    13:00 +12°C° 0 mm 2 mps 752 mmHg 26%
    14:00 +13°C° 0 mm 2 mps 752 mmHg 25%
    15:00 +13°C° 0 mm 1 mps 751 mmHg 25%
    16:00 +12°C° 0 mm 1 mps 751 mmHg 26%
    17:00 +12°C° 0 mm 1 mps 750 mmHg 27%
    18:00 +10°C° 0 mm 1 mps 750 mmHg 33%
    19:00 +8°C° 0 mm 1 mps 750 mmHg 39%
    20:00 +6°C° 0 mm 1 mps 750 mmHg 45%
    21:00 +5°C° 0 mm 1 mps 750 mmHg 47%
    22:00 +5°C° 0 mm 1 mps 750 mmHg 49%
    23:00 +4°C° 0 mm 1 mps 750 mmHg 51%

    30 April, Tuesday

    Time Temperature Precipitation Wind Pressure Humidity
    00:00 +4°C° 0 mm 1 mps 750 mmHg 52%
    01:00 +4°C° 0 mm 1 mps 750 mmHg 54%
    02:00 +3°C° 0 mm 1 mps 750 mmHg 55%
    03:00 +3°C° 0 mm 1 mps 749 mmHg 55%
    04:00 +3°C° 0 mm 1 mps 749 mmHg 56%
    05:00 +3°C° 0 mm 1 mps 749 mmHg 57%
    06:00 +5°C° 0 mm 1 mps 749 mmHg 52%
    07:00 +8°C° 0 mm 1 mps 749 mmHg 46%
    08:00 +10°C° 0 mm 1 mps 749 mmHg 40%
    09:00 +11°C° 0 mm 1 mps 749 mmHg 36%
    10:00 +12°C° 0 mm 1 mps 748 mmHg 32%
    11:00 +14°C° 0 mm 1 mps 748 mmHg 28%
    12:00 +14°C° 0 mm 1 mps 748 mmHg 29%
    13:00 +14°C° 0 mm 1 mps 747 mmHg 29%
    14:00 +14°C° 0 mm 2 mps 747 mmHg 30%
    15:00 +14°C° 0 mm 2 mps 746 mmHg 31%
    16:00 +13°C° 0 mm 2 mps 746 mmHg 33%
    17:00 +13°C° 0 mm 2 mps 746 mmHg 35%
    18:00 +10°C° 0 mm 2 mps 746 mmHg 41%
    19:00 +9°C° 0 mm 1 mps 746 mmHg 48%
    20:00 +8°C° 0 mm 1 mps 746 mmHg 54%
    21:00 +7°C° 0 mm 1 mps 746 mmHg 55%
    22:00 +6°C° 0 mm 1 mps 745 mmHg 56%
    23:00 +6°C° 0 mm 1 mps 745 mmHg 57%

    1 May, Wednesday

    Time Temperature Precipitation Wind Pressure Humidity
    00:00 +5°C° 0 mm 1 mps 745 mmHg 59%
    01:00 +4°C° 0 mm 0 mps 745 mmHg 60%
    02:00 +4°C° 0 mm 0 mps 745 mmHg 61%
    03:00 +5°C° 0 mm 1 mps 745 mmHg 62%
    04:00 +4°C° 0 mm 1 mps 744 mmHg 63%
    05:00 +4°C° 0 mm 1 mps 744 mmHg 63%
    06:00 +7°C° 0 mm 1 mps 744 mmHg 57%
    07:00 +9°C° 0 mm 1 mps 744 mmHg 50%
    08:00 +11°C° 0 mm 1 mps 743 mmHg 43%
    09:00 +12°C° 0 mm 1 mps 743 mmHg 39%
    10:00 +13°C° 0 mm 2 mps 743 mmHg 36%
    11:00 +14°C° 0 mm 2 mps 742 mmHg 32%
    12:00 +14°C° 0 mm 2 mps 741 mmHg 32%
    13:00 +15°C° 0 mm 2 mps 741 mmHg 33%
    14:00 +14°C° 0 mm 3 mps 740 mmHg 33%
    15:00 +13°C° 0 mm 3 mps 740 mmHg 34%
    16:00 +13°C° 0 mm 3 mps 739 mmHg 36%
    17:00 +13°C° 0 mm 3 mps 739 mmHg 38%
    18:00 +12°C° 0 mm 2 mps 738 mmHg 45%
    19:00 +9°C° 0 mm 2 mps 738 mmHg 52%
    20:00 +8°C° 0 mm 2 mps 738 mmHg 58%
    21:00 +7°C° 0 mm 2 mps 737 mmHg 59%
    22:00 +7°C° 0 mm 2 mps 737 mmHg 59%
    23:00 +5°C° 0 mm 3 mps 736 mmHg 59%
    Show more